Stündliche Wetter Otradnaya

Heute, 14 April, Mittwoch

Zeit Temperatur Niederschläge Wind Luftdruck Luftfeuchtigkeit
00:00 +9°C° 0.5 mm 2 m/S 744 mmHg 98%
01:00 +9°C° 0.5 mm 2 m/S 744 mmHg 98%
02:00 +9°C° 0 mm 2 m/S 743 mmHg 97%
03:00 +9°C° 0.3 mm 2 m/S 743 mmHg 97%
04:00 +9°C° 0.3 mm 2 m/S 743 mmHg 97%
05:00 +9°C° 0.3 mm 2 m/S 743 mmHg 96%
06:00 +9°C° 0.1 mm 2 m/S 743 mmHg 95%
07:00 +9°C° 0.1 mm 2 m/S 743 mmHg 94%
08:00 +10°C° 0.1 mm 1 m/S 744 mmHg 93%
09:00 +9°C° 0.1 mm 2 m/S 744 mmHg 92%
10:00 +9°C° 0.1 mm 2 m/S 744 mmHg 91%
11:00 +10°C° 0.1 mm 2 m/S 744 mmHg 90%
12:00 +10°C° 0.1 mm 3 m/S 744 mmHg 85%
13:00 +11°C° 0.1 mm 3 m/S 744 mmHg 81%
14:00 +11°C° 0.1 mm 3 m/S 744 mmHg 77%
15:00 +12°C° 0.1 mm 2 m/S 744 mmHg 77%
16:00 +12°C° 0.1 mm 2 m/S 744 mmHg 77%
17:00 +12°C° 0.1 mm 2 m/S 743 mmHg 77%
18:00 +10°C° 0.1 mm 3 m/S 744 mmHg 81%
19:00 +9°C° 0.1 mm 3 m/S 744 mmHg 86%
20:00 +7°C° 0.1 mm 4 m/S 744 mmHg 90%
21:00 +6°C° 0.1 mm 4 m/S 744 mmHg 92%
22:00 +6°C° 0.1 mm 4 m/S 744 mmHg 93%
23:00 +5°C° 0.1 mm 4 m/S 744 mmHg 95%

Morgen, 15 April, Donnerstag

Zeit Temperatur Niederschläge Wind Luftdruck Luftfeuchtigkeit
00:00 +5°C° 0.2 mm 4 m/S 744 mmHg 95%
01:00 +5°C° 0.2 mm 4 m/S 744 mmHg 95%
02:00 +5°C° 0.2 mm 4 m/S 744 mmHg 95%
03:00 +5°C° 0.5 mm 4 m/S 744 mmHg 95%
04:00 +5°C° 0.5 mm 4 m/S 744 mmHg 95%
05:00 +5°C° 0.5 mm 4 m/S 744 mmHg 96%
06:00 +5°C° 0.2 mm 4 m/S 744 mmHg 95%
07:00 +5°C° 0.2 mm 4 m/S 744 mmHg 95%
08:00 +5°C° 0.2 mm 5 m/S 744 mmHg 95%
09:00 +5°C° 0.3 mm 5 m/S 744 mmHg 95%
10:00 +5°C° 0.3 mm 5 m/S 744 mmHg 94%
11:00 +6°C° 0.3 mm 5 m/S 744 mmHg 94%
12:00 +6°C° 0.4 mm 5 m/S 744 mmHg 94%
13:00 +6°C° 0.4 mm 5 m/S 743 mmHg 94%
14:00 +6°C° 0.4 mm 5 m/S 743 mmHg 94%
15:00 +5°C° 0.5 mm 6 m/S 743 mmHg 94%
16:00 +5°C° 0.5 mm 6 m/S 743 mmHg 94%
17:00 +7°C° 0.5 mm 6 m/S 743 mmHg 94%
18:00 +7°C° 0.2 mm 6 m/S 743 mmHg 93%
19:00 +7°C° 0.2 mm 6 m/S 743 mmHg 92%
20:00 +7°C° 0.2 mm 6 m/S 743 mmHg 91%
21:00 +7°C° 0.5 mm 6 m/S 743 mmHg 91%
22:00 +7°C° 0.5 mm 6 m/S 743 mmHg 92%
23:00 +5°C° 0.5 mm 6 m/S 743 mmHg 92%

übermorgen, 16 April, Freitag

Zeit Temperatur Niederschläge Wind Luftdruck Luftfeuchtigkeit
00:00 +5°C° 0 mm 6 m/S 743 mmHg 92%
01:00 +5°C° 0 mm 6 m/S 743 mmHg 92%
02:00 +5°C° 0 mm 6 m/S 743 mmHg 91%
03:00 +5°C° 0 mm 6 m/S 743 mmHg 92%
04:00 +4°C° 0 mm 6 m/S 743 mmHg 92%
05:00 +4°C° 0 mm 6 m/S 743 mmHg 92%
06:00 +5°C° 0 mm 6 m/S 743 mmHg 92%
07:00 +5°C° 0 mm 6 m/S 744 mmHg 92%
08:00 +5°C° 0 mm 6 m/S 744 mmHg 91%
09:00 +7°C° 0 mm 6 m/S 744 mmHg 88%
10:00 +8°C° 0 mm 6 m/S 744 mmHg 85%
11:00 +9°C° 0 mm 6 m/S 744 mmHg 82%
12:00 +9°C° 0 mm 6 m/S 745 mmHg 81%
13:00 +10°C° 0 mm 6 m/S 745 mmHg 80%
14:00 +10°C° 0 mm 6 m/S 745 mmHg 80%
15:00 +10°C° 1.3 mm 5 m/S 745 mmHg 83%
16:00 +9°C° 1.3 mm 5 m/S 745 mmHg 87%
17:00 +9°C° 1.3 mm 5 m/S 745 mmHg 90%
18:00 +8°C° 1 mm 4 m/S 745 mmHg 91%
19:00 +8°C° 1 mm 4 m/S 745 mmHg 91%
20:00 +8°C° 1 mm 4 m/S 745 mmHg 92%
21:00 +8°C° 0.7 mm 4 m/S 746 mmHg 92%
22:00 +9°C° 0.7 mm 3 m/S 746 mmHg 92%
23:00 +9°C° 0.7 mm 3 m/S 746 mmHg 93%

17 April, Samstag

Zeit Temperatur Niederschläge Wind Luftdruck Luftfeuchtigkeit
00:00 +7°C° 0 mm 4 m/S 746 mmHg 93%
01:00 +7°C° 0 mm 4 m/S 746 mmHg 93%
02:00 +7°C° 0 mm 4 m/S 746 mmHg 94%
03:00 +7°C° 0 mm 5 m/S 747 mmHg 93%
04:00 +7°C° 0 mm 5 m/S 747 mmHg 92%
05:00 +7°C° 0 mm 5 m/S 747 mmHg 92%
06:00 +7°C° 0 mm 5 m/S 747 mmHg 91%
07:00 +7°C° 0 mm 4 m/S 748 mmHg 90%
08:00 +7°C° 0 mm 4 m/S 748 mmHg 90%
09:00 +8°C° 0 mm 4 m/S 748 mmHg 87%
10:00 +8°C° 0 mm 4 m/S 749 mmHg 85%
11:00 +9°C° 0 mm 5 m/S 749 mmHg 82%
12:00 +9°C° 0.1 mm 5 m/S 749 mmHg 80%
13:00 +10°C° 0.1 mm 5 m/S 749 mmHg 79%
14:00 +10°C° 0.1 mm 5 m/S 749 mmHg 77%
15:00 +10°C° 0 mm 5 m/S 749 mmHg 78%
16:00 +11°C° 0 mm 4 m/S 749 mmHg 79%
17:00 +11°C° 0 mm 4 m/S 749 mmHg 80%
18:00 +11°C° 0 mm 4 m/S 749 mmHg 80%
19:00 +10°C° 0 mm 4 m/S 749 mmHg 81%
20:00 +10°C° 0 mm 3 m/S 749 mmHg 81%
21:00 +10°C° 0 mm 4 m/S 749 mmHg 81%
22:00 +8°C° 0 mm 4 m/S 749 mmHg 80%
23:00 +8°C° 0 mm 4 m/S 750 mmHg 80%

18 April, Sonntag

Zeit Temperatur Niederschläge Wind Luftdruck Luftfeuchtigkeit
00:00 +7°C° 0 mm 4 m/S 750 mmHg 81%
01:00 +6°C° 0 mm 4 m/S 750 mmHg 82%
02:00 +5°C° 0 mm 4 m/S 750 mmHg 83%
03:00 +5°C° 0 mm 4 m/S 750 mmHg 82%
04:00 +4°C° 0 mm 4 m/S 750 mmHg 81%
05:00 +4°C° 0 mm 4 m/S 750 mmHg 80%
06:00 +5°C° 0 mm 4 m/S 750 mmHg 77%
07:00 +6°C° 0 mm 4 m/S 750 mmHg 73%
08:00 +7°C° 0 mm 5 m/S 750 mmHg 69%
09:00 +8°C° 0 mm 5 m/S 750 mmHg 67%
10:00 +10°C° 0 mm 5 m/S 750 mmHg 65%
11:00 +12°C° 0 mm 5 m/S 751 mmHg 62%
12:00 +12°C° 0 mm 5 m/S 751 mmHg 62%
13:00 +13°C° 0 mm 5 m/S 751 mmHg 62%
14:00 +13°C° 0 mm 5 m/S 751 mmHg 61%
15:00 +13°C° 0 mm 5 m/S 751 mmHg 63%
16:00 +13°C° 0 mm 5 m/S 751 mmHg 65%
17:00 +13°C° 0 mm 4 m/S 751 mmHg 67%
18:00 +11°C° 0 mm 4 m/S 751 mmHg 72%
19:00 +10°C° 0 mm 3 m/S 751 mmHg 78%
20:00 +8°C° 0 mm 3 m/S 751 mmHg 84%
21:00 +8°C° 0 mm 3 m/S 752 mmHg 85%
22:00 +8°C° 0 mm 3 m/S 752 mmHg 85%
23:00 +8°C° 0 mm 3 m/S 752 mmHg 86%

19 April, Montag

Zeit Temperatur Niederschläge Wind Luftdruck Luftfeuchtigkeit
00:00 +8°C° 0 mm 3 m/S 752 mmHg 86%
01:00 +8°C° 0 mm 3 m/S 752 mmHg 85%
02:00 +8°C° 0 mm 3 m/S 752 mmHg 84%
03:00 +8°C° 0 mm 3 m/S 752 mmHg 83%
04:00 +8°C° 0 mm 3 m/S 752 mmHg 82%
05:00 +8°C° 0 mm 3 m/S 752 mmHg 81%
06:00 +8°C° 0 mm 3 m/S 752 mmHg 76%
07:00 +8°C° 0 mm 4 m/S 753 mmHg 72%
08:00 +10°C° 0 mm 4 m/S 753 mmHg 67%
09:00 +10°C° 0 mm 5 m/S 753 mmHg 61%
10:00 +12°C° 0 mm 5 m/S 753 mmHg 55%
11:00 +13°C° 0 mm 5 m/S 753 mmHg 49%
12:00 +14°C° 0 mm 5 m/S 753 mmHg 47%
13:00 +14°C° 0 mm 5 m/S 753 mmHg 45%
14:00 +15°C° 0 mm 5 m/S 752 mmHg 43%
15:00 +14°C° 0 mm 5 m/S 752 mmHg 46%
16:00 +14°C° 0 mm 5 m/S 752 mmHg 48%
17:00 +14°C° 0 mm 4 m/S 752 mmHg 51%
18:00 +12°C° 0 mm 4 m/S 752 mmHg 57%
19:00 +11°C° 0 mm 4 m/S 752 mmHg 63%
20:00 +9°C° 0 mm 3 m/S 752 mmHg 69%
21:00 +8°C° 0 mm 3 m/S 751 mmHg 72%
22:00 +8°C° 0 mm 3 m/S 751 mmHg 75%
23:00 +7°C° 0 mm 3 m/S 751 mmHg 78%
Mehr zeigen

Wir brauchen deine Erlaubnis

Meteoprog und unser Service Anbieter werden persönliche Daten aufbewahren, so wie Cookies, Geräte Bezeichnung oder ähnliche Technologien von deinem Gerät und Prozess, so wie Persönliche Daten Inhalte und Werbungen, genauso wie social Media und den Verkehr zu analysieren.

  • Aufbewahrung und/oder Zugang zu deiner Geräte Informationen.

    Cookies, Geräte Bezeichnung oder andere Informationen, können aufbewahrt oder Zugang zu deinem Gerät erhalten, für den Grund, der oben angegeben wird.

  • Personalisierte Werbung und Inhalte, Messungen, Einblick in das Publikum und Produkt Entwicklung.

    Werbungen und Inhalte können personalisiert werden, basierend auf ein Profil. Mehr Daten können besser personalisierte Werbungen und Inhalte hinzufügen. Werbung und Inhalte können gezeigt und gemessen werden. Einblicke über das Publikum, welche die Werbung gesehen haben und den Inhalt, können abgeleitet werden. So wie Daten können genutzt werden, um es zu verbessern oder die Benutzer Erfahrung zu verbessern das System und die Software.

Wenn du “Ich stimme zu” klickst, erlaubst du uns, die Cookies zu benutzen die Geräte Bezeichnung, den Web oder ähnliche Technologien zu benutzen. Deine Settings, können in deinem Gerät bei deinem Browser geändert werden.

Für den bestimmten Zweck, berechtigten Interessen beruhen darauf, mehr als auf den Inhalt. Du kannst mehr darüber in unseren Privaten und Cookie Politik lesen.